星链-31952 (STARLINK-31952 )

导读

STARLINK-31952是SpaceX星链互联网卫星星座的一员,由美国于2024年5月24日成功发射入轨。星链项目旨在构建全球卫星互联网,为偏远地区提供高速网络服务。该卫星延续星链设计标准,通过星间激光链路实现数据传输,进一步扩充了星链星座的网络覆盖与服务能力,推动全球互联基础设施建设。

基本信息
目录编号:
59867
目录名称:
STARLINK-31952
国际标识:
2024-098K
轨道中心:
EARTH
卫星名称:
星链-31952
卫星全名:
星链-31952 (STARLINK-31952 )
卫星状态:
在轨 (已飞行840 天)
发射日期:
2024-05-24 UTC
国别 :
美国 (US)
星等 :
--
该卫星已列入 空间交会检测服务 Space Conjunction Data Service (SCDS) ,当前飞行风险评估等级: 无高风险
轨道信息
数据来源 国际轨道数据 AOE轨道数据
星历时间 2026-09-11T12:26:48+0800
13小时前
查看轨道信息
2026-09-10T07:00:00+0800
1天前
查看轨道信息
半长轴 6861.219km 6861.226km
偏心率 0.0001045 0.0001947
轨道倾角 43.002° 43.004°
近地点辐角 288.635° 236.524°
升交点赤经 310.559° 317.489°
平近点角 71.439° 208.313°
近地点 482.365km 481.753km
远地点 483.799km 484.425km
周期 94.267分钟 94.268分钟
每日圈数 15.275693 15.275667
详细信息
固有亮度:
5
最大亮度:
1.5
卫星平台:
Starlink v2.0 mini
覆盖范围:
全球
运营商:
太空探索技术公司
运营商所在国:
美国
制造商(研发单位):
太空探索技术公司
制造商所在国:
美国
使用方式:
暂无
卫星简介
星链(Starlink)计划是由太空探索技术公司(SpaceX)提出的一个巨型低轨卫星互联网星座项目,计划在2019年至2024年间在太空搭建由约1.2万颗卫星组成的“星链”网络,其中1584颗将部署在地球上空550千米处的近地轨道,并从2020年开始工作。该卫星仍在工作。
2D轨道图
3D轨道图
轨道高度分析图
轨道倾角分析图
轨道综合分析图
查看轨道综合分析图
与全量物体交会距离演化趋势
与全量物体交会风险概率演化趋势